Weather observations for the past three days for
Auburn-Opelika Airport
Imperial (Metric)
Date Time (cdt) Wind (mph) Vis. (mi.) Weather Sky Cond. Temperature (ºF) Relative Humidity Wind Chill (°F) Heat Index (°F) Pressure Precipitation (in)
Air Dwpt 6 hour altimeter (in) sea level (mb) 1 hr 3 hr 6 hr
Max. Min.
20 03:56 S 8 10.00 Overcast OVC004 73.9 73.9 100% 30.08 1017.5 0.05
20 02:56 S 7 10.00 Light Rain OVC004 75 75 100% 72 30.09 1017.5
20 01:56 S 6 10.00 Overcast SCT004 BKN010 OVC020 75 75 100% 72 30.09 1017.7 0.05
20 00:56 SE 8 10.00 Overcast BKN004 BKN015 OVC090 75 75 75.9 73.9 100% 72 30.1 1017.9
19 23:56 SE 5 10.00 Partly Cloudy SCT011 SCT030 SCT041 75 75 100% 72 30.12 1018.6
19 22:56 Calm 10.00 Fair CLR 75 75 100% 72 30.11 1018.2
19 21:56 E 5 10.00 Fair CLR 73.9 73.9 100% 30.09 1017.7
19 20:56 SE 3 10.00 Fair CLR 75 75 100% 72 30.09 1017.7
19 19:56 E 3 10.00 Fair CLR 75.9 75 97% 75 30.08 1017.4
19 18:56 Calm 10.00 A Few Clouds FEW006 75.9 75 87.1 73 97% 75 30.07 1017.1 0.23
19 17:56 S 6 10.00 Fair CLR 77 73.9 90% 78 30.06 1016.6
19 16:56 Calm 10.00 A Few Clouds FEW004 75 73 94% 73 30.07 1017.1 0.04
19 15:56 S 6 3.00 Thunderstorm Rain Fog/Mist FEW006 BKN037 OVC050 73 73 100% 30.08 1017.5 0.19 0.19
19 14:56 S 6 10.00 Partly Cloudy SCT030 82.9 72 70% 88 30.08 1017.1
19 13:56 Vrbl 3 10.00 Mostly Cloudy BKN120 84 70 63% 88 30.09 1017.7
19 12:56 Calm 10.00 A Few Clouds FEW100 82 72 82 73.9 72% 87 30.11 1018.3
19 11:56 Calm 10.00 Partly Cloudy SCT120 81 70 69% 84 30.12 1018.5
19 10:56 Calm 10.00 Overcast FEW070 OVC100 80.1 71.1 74% 84 30.12 1018.4
19 09:56 Calm 10.00 Overcast FEW090 OVC100 77 72 85% 78 30.12 1018.6
19 08:56 Calm 10.00 Overcast FEW075 OVC100 75 72 90% 74 30.11 1018.2
19 07:56 Calm 10.00 Partly Cloudy FEW090 SCT120 75 71.1 88% 75 30.1 1017.9
19 06:56 Calm 10.00 Fair CLR 73.9 71.1 75 73 91% 30.08 1017.5
19 05:56 Calm 10.00 Overcast OVC018 73.9 71.1 91% 30.08 1017.5
19 04:56 Calm 10.00 Overcast SCT018 OVC023 73.9 71.1 91% 30.07 1016.7
19 03:56 SW 3 10.00 Mostly Cloudy BKN044 BKN120 73.9 71.1 91% 30.06 1016.6
19 02:56 S 5 10.00 Fair CLR 75 70 84% 75 30.06 1016.4
19 01:56 Calm 10.00 Fair CLR 75 70 84% 75 30.05 1016.3
19 00:56 Calm 10.00 Fair CLR 75 69.1 84.9 73.9 82% 75 30.06 1016.5
18 23:56 SE 3 10.00 Fair CLR 75 69.1 82% 75 30.06 1016.7
18 22:56 SE 6 10.00 Partly Cloudy SCT050 75.9 69.1 79% 77 30.08 1017.3
18 21:56 N 9 10.00 Fair CLR 77 68 74% 79 30.06 1016.4
18 20:56 NW 13 10.00 Fair CLR 78.1 68 71% 80 30.05 1016.3
18 19:56 NW 14 10.00 A Few Clouds FEW110 82 69.1 65% 85 30.06 1016.6
18 18:56 W 10 10.00 Fair CLR 84.9 73 93 84.9 68% 92 30.01 1014.9
18 17:56 SW 7 10.00 Fair CLR 88 69.1 54% 92 30.01 1015.0
18 16:56 SW 9 10.00 Fair CLR 91 66.9 45% 94 30 1014.4
18 15:56 SW 13 10.00 Fair CLR 93 64.9 40% 95 30.01 1014.8
18 14:56 SW 9 7.00 Fair CLR 91 69.1 49% 96 30.02 1015.3
18 13:56 W 7 10.00 Fair CLR 91 69.1 49% 96 30.05 1016.0
18 12:56 SW 12 10.00 Fair CLR 90 71.1 90 75 54% 96 30.07 1016.7
18 11:56 SW 7 10.00 Fair CLR 87.1 71.1 59% 93 30.08 1017.3
18 10:56 W 10 10.00 Fair CLR 86 71.1 61% 92 30.09 1017.6
18 09:56 SW 3 10.00 Fair CLR 81 72 74% 85 30.1 1017.8
18 08:56 W 5 10.00 Fair CLR 80.1 72 76% 84 30.1 1018.2
18 07:56 SW 7 10.00 Fair CLR 78.1 72 82% 80 30.1 1018.0
18 06:56 SW 6 10.00 A Few Clouds FEW070 75 71.1 75 73.9 88% 75 30.09 1017.6
18 05:56 SW 6 5.00 Fog/Mist CLR 73.9 70 88% 30.08 1017.2
18 04:56 Calm 10.00 Fair CLR 73.9 71.1 91% 30.05 1016.2
18 03:56 W 3 10.00 Fair CLR 75 71.1 88% 75 30.04 1016.1
18 02:56 Calm 10.00 Fair CLR 75 73 94% 73 30.06 1016.6
18 01:56 Vrbl 3 10.00 Mostly Cloudy BKN006 75 73.9 96% 73 30.06 1016.5
18 00:56 SW 3 10.00 Fair CLR 75 73.9 84 75 96% 73 30.07 1017.0
17 23:56 SW 6 10.00 Fair CLR 75 73 94% 73 30.06 1016.5
17 22:56 S 7 10.00 Fair CLR 75.9 73 91% 76 30.05 1016.1
17 21:56 SW 8 10.00 Fair CLR 77 73 88% 78 30.06 1016.7
17 20:56 SE 5 10.00 Fair CLR 80.1 75 85% 85 30.06 1016.6
17 19:56 S 7 10.00 Fair CLR 82 73.9 77% 88 30.06 1016.6
17 18:56 S 6 10.00 Fair CLR 84 73.9 91 82 72% 91 30.07 1017.2
17 17:56 SW 5 10.00 Fair CLR 84 70 63% 88 30.05 1016.0
17 16:56 NW 10 G 18 10.00 Partly Cloudy FEW029 SCT035 82.9 70 65% 87 30.04 1015.9
17 15:56 NW 9 10.00 Fair CLR 88 73 61% 96 30.03 1015.8
17 14:56 N 8 10.00 Fair CLR 86 70 59% 91 30.04 1016.0
17 13:56 SW 14 10.00 Thunderstorm in Vicinity FEW039 SCT100 88 75 66% 98 30.03 1015.8
17 12:56 SW 5 10.00 Rain FEW028 SCT050 BKN110 86 75 91 75 70% 95 30.05 1016.5 0.01 0.01
17 11:56 Vrbl 5 10.00 Mostly Cloudy FEW033 SCT041 BKN065 90 75 62% 100 30.08 1017.2
17 10:56 NW 10 G 18 10.00 A Few Clouds FEW029 88 75 66% 98 30.09 1017.5
17 09:56 NW 7 10.00 Fair CLR 84.9 75.9 75% 94 30.1 1018.1
17 08:56 W 8 5.00 A Few Clouds with Haze FEW024 82 75.9 82% 89 30.11 1018.3
17 06:56 Calm 10.00 Fair CLR 75 73.9 75 73 96% 73 30.1 1017.8
17 05:56 SW 3 10.00 Fair CLR 73 73 100% 30.08 1017.5
17 04:56 SW 5 10.00 Partly Cloudy SCT019 SCT044 73.9 73 97% 30.06 1016.5
Date Time (cdt) Wind (mph) Vis. (mi.) Weather Sky Cond. Air Dwpt Max. Min. Relative Humidity Wind Chill (°F) Heat Index (°F) altimeter (in) sea level (mb) 1 hr 3 hr 6 hr
6 hour
Temperature (ºF) Pressure Precipitation (in)